Location: ???????
(60.4260°N, 46.9069°E)
Time: 05:54:28
(UTC+00:00)

Cosmos 2082 Rocket - Pass Details

Date: 30 March 2020
Orbit: 832 x 855 km, 71.0° (Epoch: 05 June)

Event Time Altitude Azimuth Distance (km) Brightness Sun altitude
Exits shadow 00:55:46 - 279° (W) 2,721 4.4 -10.9°
Reaches altitude 10° 00:56:33 10° 283° (WNW) 2,462 4.2 -10.8°
Maximum altitude 01:01:33 31° 346° (NNW) 1,440 3.6 -10.3°
Drops below altitude 10° 01:06:35 10° 48° (NE) 2,480 6.0 -9.7°
Sets 01:09:21 0° 59° (ENE) 3,420 7.6 -9.4°
